TimeEDT,TemperatureF,Dew PointF,Humidity,Sea Level PressureIn,VisibilityMPH,Wind Direction,Wind SpeedMPH,Gust SpeedMPH,PrecipitationIn,Events,Conditions,WindDirDegrees,DateUTC
12:00 AM,48.2,44.6,87,29.97,25.0,NE,12.7,25.3,N/A,,Overcast,50,2012-10-29 04:00:00
1:00 AM,48.2,44.6,87,29.96,25.0,NE,10.4,21.9,N/A,,Overcast,50,2012-10-29 05:00:00
2:00 AM,48.2,44.6,87,29.95,25.0,ENE,9.2,21.9,N/A,,Overcast,60,2012-10-29 06:00:00
3:00 AM,48.2,44.6,87,29.93,25.0,NE,12.7,23.0,N/A,,Mostly Cloudy,50,2012-10-29 07:00:00
4:00 AM,48.2,44.6,87,29.92,25.0,NE,9.2,21.9,N/A,,Mostly Cloudy,40,2012-10-29 08:00:00
5:00 AM,48.2,44.6,87,29.92,25.0,NE,10.4,20.7,N/A,,Overcast,40,2012-10-29 09:00:00
6:00 AM,50.0,44.6,82,29.91,25.0,NE,12.7,24.2,N/A,,Overcast,50,2012-10-29 10:00:00
7:00 AM,50.0,46.4,87,29.90,25.0,NE,11.5,18.4,N/A,,Overcast,50,2012-10-29 11:00:00
8:00 AM,50.0,46.4,87,29.89,25.0,NE,10.4,17.3,N/A,,Overcast,50,2012-10-29 12:00:00
9:00 AM,50.0,46.4,87,29.88,40.0,NE,9.2,21.9,N/A,,Overcast,50,2012-10-29 13:00:00
10:00 AM,51.8,48.2,88,29.86,45.0,NE,10.4,-,N/A,,Overcast,50,2012-10-29 14:00:00
11:00 AM,53.6,48.2,82,29.85,45.0,ENE,11.5,23.0,N/A,,Overcast,60,2012-10-29 15:00:00
12:00 PM,55.4,48.2,77,29.83,35.0,NE,11.5,23.0,N/A,,Overcast,50,2012-10-29 16:00:00
1:00 PM,55.4,48.2,77,29.79,50.0,NE,12.7,24.2,N/A,,Overcast,50,2012-10-29 17:00:00
2:00 PM,59.0,50.0,72,29.78,40.0,NE,11.5,26.5,N/A,,Mostly Cloudy,50,2012-10-29 18:00:00
3:00 PM,59.0,50.0,72,29.74,40.0,NE,15.0,29.9,N/A,,Mostly Cloudy,50,2012-10-29 19:00:00
4:00 PM,59.0,50.0,72,29.71,45.0,NE,19.6,32.2,N/A,,Overcast,50,2012-10-29 20:00:00
5:00 PM,57.2,51.8,82,29.70,45.0,NE,15.0,28.8,N/A,,Overcast,50,2012-10-29 21:00:00
6:00 PM,57.2,50.0,77,29.68,25.0,NE,15.0,32.2,N/A,,Mostly Cloudy,50,2012-10-29 22:00:00
7:00 PM,57.2,48.2,72,29.62,25.0,NE,17.3,33.4,N/A,,Mostly Cloudy,40,2012-10-29 23:00:00
8:00 PM,57.2,50.0,77,29.59,25.0,NE,18.4,40.3,N/A,,Mostly Cloudy,50,2012-10-30 00:00:00
9:00 PM,57.2,50.0,77,29.56,25.0,NE,20.7,38.0,N/A,,Mostly Cloudy,50,2012-10-30 01:00:00
9:10 PM,57.2,51.8,82,29.55,25.0,NE,19.6,41.4,N/A,Rain,Light Rain Showers,50,2012-10-30 01:10:00
10:00 PM,57.2,50.0,77,29.53,25.0,NE,18.4,39.1,N/A,Rain,Light Rain Showers,50,2012-10-30 02:00:00
11:00 PM,55.4,50.0,82,29.51,25.0,ENE,19.6,40.3,N/A,Rain,Light Rain Showers,60,2012-10-30 03:00:00